TimeEDT,TemperatureF,Dew PointF,Humidity,Sea Level PressureIn,VisibilityMPH,Wind Direction,Wind SpeedMPH,Gust SpeedMPH,PrecipitationIn,Events,Conditions,WindDirDegrees,DateUTC
12:02 AM,66.2,66.2,100,30.04,10.0,Calm,Calm,-,0.00,Rain,Light Rain,0,2013-07-02 04:02:00
12:51 AM,66.0,64.9,96,29.93,10.0,SSE,3.5,-,0.00,,Overcast,150,2013-07-02 04:51:00
1:51 AM,64.0,64.0,100,29.93,10.0,South,4.6,-,N/A,,Clear,180,2013-07-02 05:51:00
2:51 AM,64.9,64.9,100,29.93,10.0,SSE,3.5,-,N/A,,Clear,160,2013-07-02 06:51:00
3:51 AM,64.9,64.9,100,29.93,10.0,Calm,Calm,-,N/A,,Partly Cloudy,0,2013-07-02 07:51:00
4:51 AM,66.0,66.0,100,29.94,10.0,SE,5.8,-,0.00,,Clear,140,2013-07-02 08:51:00
5:51 AM,66.9,66.0,97,29.95,10.0,SSE,9.2,-,N/A,,Clear,150,2013-07-02 09:51:00
6:51 AM,66.9,64.9,93,29.97,10.0,SSE,4.6,-,N/A,,Clear,160,2013-07-02 10:51:00
7:51 AM,66.9,64.9,93,30.00,10.0,SSE,8.1,-,N/A,,Partly Cloudy,150,2013-07-02 11:51:00
8:51 AM,70.0,66.0,87,30.01,10.0,SSE,4.6,-,0.00,,Mostly Cloudy,160,2013-07-02 12:51:00
10:51 AM,72.0,66.0,81,30.03,10.0,South,8.1,-,0.00,,Mostly Cloudy,170,2013-07-02 14:51:00
11:51 AM,72.0,66.0,81,30.06,10.0,SSE,5.8,-,N/A,,Overcast,160,2013-07-02 15:51:00
12:51 PM,71.1,66.0,84,30.05,10.0,SE,4.6,-,N/A,,Overcast,140,2013-07-02 16:51:00
1:51 PM,75.0,66.9,76,30.04,10.0,ESE,10.4,-,N/A,,Mostly Cloudy,110,2013-07-02 17:51:00
2:51 PM,75.0,66.9,76,30.03,10.0,ESE,9.2,-,N/A,,Overcast,120,2013-07-02 18:51:00
3:51 PM,75.0,66.0,73,30.02,10.0,SE,10.4,20.7,0.00,,Scattered Clouds,140,2013-07-02 19:51:00
4:36 PM,68.0,64.4,88,30.13,3.0,WSW,5.8,-,0.01,Rain,Heavy Rain,240,2013-07-02 20:36:00
4:51 PM,70.0,66.9,90,30.04,10.0,East,3.5,-,0.03,Rain,Light Rain,90,2013-07-02 20:51:00
5:17 PM,69.8,68.0,94,30.13,5.0,Calm,Calm,-,0.02,Rain,Rain,0,2013-07-02 21:17:00
5:22 PM,69.8,68.0,94,30.13,1.8,West,4.6,-,0.04,Rain,Heavy Rain,270,2013-07-02 21:22:00
5:48 PM,68.0,68.0,100,30.15,2.5,Calm,Calm,-,0.15,Rain,Rain,0,2013-07-02 21:48:00
5:51 PM,68.0,68.0,100,30.06,2.5,Calm,Calm,-,0.16,Rain,Rain,0,2013-07-02 21:51:00
6:03 PM,69.8,69.8,100,30.14,7.0,Calm,Calm,-,0.02,Rain,Light Rain,0,2013-07-02 22:03:00
6:22 PM,69.8,69.8,100,30.15,2.0,West,3.5,-,0.06,Rain,Rain,270,2013-07-02 22:22:00
6:42 PM,69.8,69.8,100,30.15,1.2,Calm,Calm,-,0.12,Rain,Heavy Rain,0,2013-07-02 22:42:00
6:51 PM,69.1,69.1,100,30.06,0.8,East,4.6,-,0.26,Rain,Heavy Rain,90,2013-07-02 22:51:00
6:57 PM,69.8,69.8,100,30.14,2.0,ENE,4.6,-,0.03,Rain,Light Rain,70,2013-07-02 22:57:00
7:05 PM,69.8,68.0,94,30.14,10.0,SSE,5.8,-,0.04,Rain,Light Rain,150,2013-07-02 23:05:00
7:51 PM,70.0,66.9,90,30.05,10.0,SE,11.5,-,0.04,,Mostly Cloudy,130,2013-07-02 23:51:00
8:51 PM,69.1,66.9,93,30.05,10.0,SE,11.5,-,N/A,,Overcast,130,2013-07-03 00:51:00
9:38 PM,68.0,66.2,94,30.17,10.0,SSE,8.1,17.3,N/A,,Mostly Cloudy,160,2013-07-03 01:38:00
9:51 PM,68.0,66.9,96,30.08,10.0,SE,11.5,18.4,N/A,,Overcast,140,2013-07-03 01:51:00
10:11 PM,68.0,66.2,94,30.17,10.0,SSE,6.9,17.3,N/A,,Scattered Clouds,150,2013-07-03 02:11:00
10:51 PM,66.9,66.0,97,30.09,10.0,SSE,8.1,-,N/A,,Clear,160,2013-07-03 02:51:00
11:51 PM,66.9,66.0,97,30.10,10.0,SSE,6.9,-,N/A,,Clear,150,2013-07-03 03:51:00